Regional Weather Roundup
Issued by NWS

Home | Current Version | Previous Version | Text Only | Print | Product List | Glossary Off
Versions: 1 2 3 4 5 6 7 8 9 10 11 12 13 14 15 16 17 18 19 20 21 22 23 24 25 26 27 28 29 30 31 32 33 34 35 36 37 38 39 40 41 42 43 44 45 46 47 48 49 50

000
ASUS43 KMPX 230901
RWRMN
WEATHER ROUNDUP FOR MINNESOTA
NATIONAL WEATHER SERVICE TWIN CITIES/CHANHASSEN MN
400 AM CDT SAT AUG 23 2014


NOTE: "FAIR" INDICATES FEW OR NO CLOUDS BELOW 12,000 FEET WITH NO
SIGNIFICANT WEATHER AND/OR OBSTRUCTIONS TO VISIBILITY. N/A MEANS
CURRENT SKY AND/OR WEATHER CONDITIONS ARE NOT AVAILABLE.

MNZ060>063-068>070-231000-
   Twin Cities Metro

CITY           SKY/WX    TMP DP  RH WIND       PRES   REMARKS
TWIN CITIES    CLOUDY    69  68  96 NE8       29.98F
ST PAUL        CLOUDY    69  67  93 E3        29.99F
CRYSTAL        CLOUDY    69  66  90 E8        29.98F
BLAINE         CLOUDY    70  70 100 NE6       29.99F
LAKEVILLE      MOCLDY    66  66 100 CALM      29.98F FOG
EDEN PRAIRIE   MOCLDY    69  67  93 NE6       29.97F
SOUTH ST PAUL  CLOUDY    69  67  93 NE5       29.98F
LAKE ELMO      CLOUDY    70  68  94 NE5       30.00F
$$
MNZ001>005-007-008-013>017-022>024-027-028-231000-
   Northwest Minnesota

CITY           SKY/WX    TMP DP  RH WIND       PRES   REMARKS
BEMIDJI        CLOUDY    66  66  99 E5        30.05S FOG
HALLOCK        DRIZZLE   61  59  94 N7        30.09S
ROSEAU         CLOUDY    63  57  82 N5        30.09S
WARROAD        CLOUDY    63  57  82 NW5       30.09S
THIEF RVR FALL CLOUDY    63  61  94 N10       30.06S VSB 1
CROOKSTON      CLOUDY    63  61  94 NE10      30.06S
FOSSTON        CLOUDY    66  64  94 NE5       30.05S
DETROIT LAKES  CLOUDY    68  64  88 CALM      30.04F
MOORHEAD       CLOUDY    66  66 100 N7        30.03F FOG
PARK RAPIDS    FOG       67  67 100 NE3       30.03F VSB 1/2
MAHNOMEN       CLOUDY    67  67  99 NE6       30.04R FOG
$$
MNZ006-009>011-018-025>026-231000-
   North Central Minnesota

CITY           SKY/WX    TMP DP  RH WIND       PRES   REMARKS
BAUDETTE       FOG       61  60  97 CALM      30.06F VSB 1/2
FLAG ISLAND    CLOUDY    66  64  94 N8        30.07F
INTL FALLS     FOG       58  58 100 CALM      30.07R VSB 1/2
WASKISH        CLEAR     64  63  94 CALM      30.06S
BIG FORK       DRIZZLE   68  66  94 E3        30.06S
LONGVILLE      CLOUDY    66  64  94 CALM      30.04F FOG
GRAND RAPIDS   CLOUDY    64  61  88 CALM      30.06F
CRANE LAKE     CLOUDY    61  61 100 CALM      30.08F
ORR            CLOUDY    64  63  94 CALM      30.05S
COOK           CLOUDY    64  64 100 CALM      30.08R
WALKER         CLOUDY    65  65 100 CALM      30.04S FOG
$$
MNZ012-019>021-037-231000-
   Northeast Minnesota

CITY           SKY/WX    TMP DP  RH WIND       PRES   REMARKS
DULUTH         MOCLDY    62  59  90 E8        30.06R
ELY            CLOUDY    63  61  94 CALM      30.08R
HIBBING        CLOUDY    64  62  93 CALM      30.07S
EVELETH        CLOUDY    63  61  94 CALM      30.09S
DULUTH HARBOR  MOCLDY    63  61  94 NE5       30.05S
TWO HARBORS    CLOUDY    61  55  82 CALM      30.05R
SILVER BAY     PTCLDY    61  61 100 CALM      30.04F
GRAND MARAIS     N/A     62  60  93 CALM      30.05F
G MARAIS ARPRT CLOUDY    61  55  82 N3        30.10S
$$
MNZ029>031-032-039>041-046>048-054>057-064-231000-
   West Central Minnesota

CITY           SKY/WX    TMP DP  RH WIND       PRES   REMARKS
FERGUS FALLS   CLOUDY    66  66 100 N3        29.99F
WHEATON        CLOUDY    64  63  94 N8        30.01S FOG
MORRIS         CLOUDY    70  68  94 CALM      29.99R
ALEXANDRIA     CLOUDY    69  67  93 E6        30.02F
ELBOW LAKE     CLOUDY    68  67  98 NE5       30.00S
WADENA         FOG       66  64  94 NE3       30.01F VSB 1/4
GLENWOOD       CLOUDY    66  66 100 E6        30.02R FOG
APPLETON       CLOUDY    72  68  88 NE3       29.98R
BENSON         CLOUDY    70  68  94 SE5       29.99S
ORTONVILLE     CLOUDY    68  64  88 NE9       29.99R
MADISON        CLOUDY    72  70  94 CALM      29.98S FOG
WILLMAR        FAIR      70  66  88 E7        30.01S
$$
MNZ033>034-036-042>043-049>051-058-059-231000-
   Central Minnesota

CITY           SKY/WX    TMP DP  RH WIND       PRES   REMARKS
ST CLOUD       MOCLDY    66  64  93 NE5       30.00S
SAUK CENTRE    CLOUDY    67  65  96 E6        30.02R
PAYNESVILLE    CLOUDY    65  64  97 NE8       30.03R FOG
AITKIN         CLOUDY    63  57  82 CALM      30.03F HAZE
PINE RIVER     CLOUDY    66  66 100 E5        30.07F
BRAINERD       CLOUDY    64  63  96 NE6       30.03F
STAPLES        CLOUDY    64  64 100 E5        30.02F
LONG PRAIRIE   MOCLDY    64  63  94 E5        30.02S
LITTLE FALLS   MOCLDY    63  61  94 CALM      30.01F
LITCHFIELD     CLOUDY    70  70 100 NE3       30.01S
BUFFALO        CLOUDY    67  64  92 NE5       30.01S
MAPLE LAKE     CLOUDY    67  67  98 E5        30.01R
$$
MNZ037-044-045-052-053-231000-
   East Central Minnesota

CITY           SKY/WX    TMP DP  RH WIND       PRES   REMARKS
PRINCETON      MOCLDY    66  64  94 NE5       30.00F
MORA           MOCLDY    63  61  94 CALM      30.03F
CAMBRIDGE      CLOUDY    68  59  73 NE3       29.99F
RUSH CITY      MOCLDY    64  62  93 NE7       30.01F
MOOSE LAKE     CLOUDY    61  61 100 NE3       30.03F FOG
HINCKLEY       CLOUDY    61  61 100 NE5       30.03F FOG
CLOQUET        PTCLDY    59  57  94 N3        30.06F FOG
MCGREGOR       CLOUDY    61  61 100 NE5       30.05F VSB 1/2
$$
MNZ071>073-080-081-089-090-097-098-231000-
   Southwest Minnesota

CITY           SKY/WX    TMP DP  RH WIND       PRES   REMARKS
MONTEVIDEO     CLOUDY    70  70 100 SE5       29.99S
GRANITE FALLS  CLOUDY    70  69  97 E5        30.01R
CANBY          CLOUDY    70  69  96 CALM      30.00R FOG
MARSHALL       CLOUDY    70  66  88 SE10      29.98R
REDWOOD FALLS  CLOUDY    69  67  93 E5        29.99R
OLIVIA         CLOUDY    70  66  88 E3        29.99S
PIPESTONE      CLOUDY    70  66  88 E10       29.98S
WINDOM         CLOUDY    68  66  94 CALM      29.98F FOG
WORTHINGTON      N/A     68  66  94 NE5       29.99S
JACKSON        CLOUDY    68  64  88 NE3       29.97F FOG
TRACY          CLOUDY    69  67  96 E3        29.99S FOG
SLAYTON        CLOUDY    67  67  98 CALM      29.99F FOG
$$
MNZ065>067-074>077-082>085-091>093-231000-
   South Central Minnesota

CITY           SKY/WX    TMP DP  RH WIND       PRES   REMARKS
MANKATO        CLOUDY    70  64  83 E6        29.97F
NEW ULM        CLOUDY    68  68 100 CALM      29.98F
ST JAMES       MOCLDY    66  64  94 N6        29.97F FOG
FAIRMONT       MOCLDY    61  61 100 MISG      29.95F
GLENCOE        MOCLDY    68  65  91 CALM      29.99S FOG
FARIBAULT      CLOUDY    70  63  78 CALM      29.98F HAZE
OWATONNA       CLOUDY    66  64  94 N3        29.98S FOG
WASECA         CLOUDY    63  61  94 N5        29.99F FOG
ALBERT LEA     MOCLDY    70  66  88 E6        29.96F FOG
$$
MNZ078>079-086>088-094>096-231000-
   Southeast Minnesota

CITY           SKY/WX    TMP DP  RH WIND       PRES   REMARKS
ROCHESTER      MOCLDY    68  65  90 NE5       29.98F FOG
RED WING       CLOUDY    70  68  94 E3        29.96F
STANTON        MOCLDY    67  65  93 NE3       29.97F FOG
DODGE CENTER   FOG       66  66 100 NE3       29.98F VSB 1/2
WINONA         CLOUDY    72  70  94 CALM      29.96F
AUSTIN         MOCLDY    66  66 100 NE5       29.96F FOG
PRESTON        MOCLDY    67  67 100 CALM      29.99S FOG
$$
ABBREVIATIONS USED IN REMARKS
   TC - TEMPERATURES IN CELSIUS
  WCI - WIND CHILL INDEX
   HX - HEAT INDEX
  VSB - VISIBILITY
$$


USA.gov is the U.S. government's official web portal to all federal, state and local government web resources and services.